This is the latest recevied weather packets stored in our database for station/object KA2FNK. If no packets are shown the sender has not sent any weather packets the latest 1 day(s).
| Time | Temp. | Humidity | Pressure | Rain* | Wind** | Luminosity | Snow |
|---|---|---|---|---|---|---|---|
| 1836274691 | 21.11° C | 79% | 1017 hPa | 0 mm | 0 m/s | - | - |
| 1836274543 | 20.56° C | 80% | 1017.1 hPa | 0 mm | 0 m/s | - | - |
| 1836274390 | 21.11° C | 78% | 1017.2 hPa | 0 mm | 0 m/s | - | - |
| 1836274242 | 21.11° C | 80% | 1017.1 hPa | 0 mm | 0 m/s | - | - |
| 1836274089 | 21.11° C | 76% | 1017.1 hPa | 0 mm | 0 m/s | - | - |
| 1778046406 | 7.78° C | 80% | 1014.8 hPa | 0 mm | 0.89 m/s, 350° | - | - |
| 1778046105 | 7.78° C | 79% | 1014.9 hPa | 0 mm | 2.24 m/s, 358° | - | - |
| 1778045804 | 7.78° C | 78% | 1015 hPa | 0 mm | 2.24 m/s, 330° | - | - |
| 1778045503 | 7.78° C | 79% | 1014.9 hPa | 0 mm | 0 m/s | - | - |
| 1778045202 | 8.33° C | 78% | 1014.9 hPa | 0 mm | 0 m/s | - | - |
| 1778044901 | 8.33° C | 78% | 1014.9 hPa | 0 mm | 0 m/s | - | - |
| 1778044600 | 8.33° C | 77% | 1014.8 hPa | 0.25 mm | 0 m/s | - | - |
| 1778044299 | 8.33° C | 76% | 1014.8 hPa | 0.51 mm | 0 m/s | - | - |
| 1778043998 | 8.33° C | 75% | 1014.8 hPa | 0.51 mm | 0.89 m/s, 42° | - | - |
| 1778043697 | 8.33° C | 76% | 1014.7 hPa | 0.51 mm | 0.45 m/s, 338° | - | - |
| 1778043396 | 8.33° C | 75% | 1014.5 hPa | 0.51 mm | 1.34 m/s, 16° | - | - |
| 1778043095 | 8.33° C | 74% | 1014.6 hPa | 0.51 mm | 0.45 m/s, 331° | - | - |
| 1778042794 | 8.33° C | 76% | 1014.5 hPa | 0.51 mm | 1.79 m/s, 316° | - | - |
| 1778042493 | 8.33° C | 75% | 1014.5 hPa | 0.51 mm | 0.45 m/s, 15° | - | - |
| 1778042192 | 8.89° C | 75% | 1014.4 hPa | 0.51 mm | 0 m/s | - | - |
| 1778041891 | 8.33° C | 74% | 1014.4 hPa | 0.51 mm | 1.79 m/s, 358° | - | - |
| 1778041590 | 8.89° C | 74% | 1014.5 hPa | 0.51 mm | 1.34 m/s, 343° | - | - |
| 1778041289 | 8.89° C | 70% | 1014.6 hPa | 0.51 mm | 1.79 m/s, 351° | - | - |
| 1778040988 | 9.44° C | 67% | 1014.5 hPa | 0.25 mm | 2.24 m/s, 323° | - | - |
| 1778040687 | 9.44° C | 72% | 1014.3 hPa | 0 mm | 1.79 m/s, 324° | - | - |
* Rain latest hour (hover to see other rain measurements)
** Current wind speed in m/s (hover to see current wind gust speed)